Location: Abbey Hill
(34.0751°N, 84.0688°W)
Time: 11:13:00
(UTC+00:00)

ISS - Pass Details

Date: 04 October 2021
Orbit: 417 x 423 km, 51.6° (Epoch: 26 October)

Event Time Altitude Azimuth Distance (km) Brightness Sun altitude
Rises 23:46:06 0° 327° (NNW) 2,362 0.5 -7.1°
Reaches altitude 10° 23:48:48 10° 350° (N) 1,497 -0.8 -7.6°
Maximum altitude 23:50:58 16° 31° (NNE) 1,188 -1.8 -8.1°
Drops below altitude 10° 23:53:04 10° 70° (ENE) 1,477 -1.6 -8.5°
Enters shadow 23:53:04 10° 70° (ENE) 1,481 -1.6 -8.5°
